Simultaneous Nadir Overpasses (SNOs) Predictions

Prediction of SNOs between FY3D and NOAA-19 Satellite Orbit:

Table of predicted SNOs for the next 14.0 days since TLE Epoch: 2/7/2020
Index Date (FY3D) Time (FY3D) Lat,Lon (FY3D) SZA (FY3D ) Date (NOAA-19) Time (NOAA-19) Lat,Lon (NOAA-19) SZA (NOAA-19 ) Distance(km) Time Diff (sec)
1 02/12/2020 13:13:23 -79.63, 127.28 84.54 02/12/2020 13:12:18 -79.63, 127.15 84.50 2.62 65
2 02/12/2020 14:04:08 79.64, -65.45 95.46 02/12/2020 14:03:15 79.65, -65.45 95.49 0.87 53
3 02/12/2020 14:54:52 -79.63, 101.93 84.57 02/12/2020 14:54:18 -79.65, 101.85 84.53 2.91 34
4 02/12/2020 15:45:37 79.64, -90.80 95.43 02/12/2020 15:45:15 79.67, -90.75 95.46 3.35 22
5 02/12/2020 16:36:22 -79.66, 76.31 84.54 02/12/2020 16:36:19 -79.64, 76.25 84.55 2.14 3
6 02/12/2020 17:27:07 79.67,-116.42 95.46 02/12/2020 17:27:16 79.66,-116.35 95.44 1.81 9
7 02/12/2020 18:17:51 -79.66, 50.97 84.57 02/12/2020 18:18:19 -79.66, 50.95 84.58 0.64 28
8 02/12/2020 19:08:36 79.66,-141.77 95.43 02/12/2020 19:09:16 79.67,-141.65 95.41 2.66 40
9 02/12/2020 19:59:20 -79.65, 25.62 84.60 02/12/2020 20:00:19 -79.68, 25.65 84.61 3.03 59




NCC Satellite Simultaneous Nadir Overpasses (SNOs) Prediction Service
